Regional Weather Roundup
Issued by NWS Cleveland, OH

Home | Current Version | Previous Version | Graphics & Text | Print | Product List | Glossary On
Versions: 1 2 3 4 5 6 7 8 9 10 11 12 13 14 15 16 17 18 19 20 21 22 23 24 25 26 27 28 29 30 31 32 33 34 35 36 37 38 39 40 41 42 43 44 45 46 47 48 49 50
000
ASUS41 KCLE 070602
RWRCLE
OHIO REGIONAL WEATHER ROUNDUP
NATIONAL WEATHER SERVICE CLEVELAND, OH
200 AM EDT TUE JUL 07 2015

NOTE: "FAIR" INDICATES FEW OR NO CLOUDS BELOW 12,000 FEET WITH NO
SIGNIFICANT WEATHER AND/OR OBSTRUCTIONS TO VISIBILITY.

OHZ001>008-015>018-024>027-034-035-043-044-070700-
   NORTHWEST OHIO

CITY           SKY/WX    TMP DP  RH WIND       PRES   REMARKS
DEFIANCE       CLOUDY    76  68  76 S8        29.92F
FINDLAY        MOCLDY    70  64  81 S8        29.94F
TOLEDO EXPRESS MOCLDY    72  65  78 S6        29.91F
TOLEDO EXEC    CLOUDY    74  64  71 S12       29.93F
LIMA           MOCLDY    71  66  84 S7        29.96F HAZE
$$

OHZ009>014-019>023-028>033-038-089-070700-
   NORTHEAST OHIO

CITY           SKY/WX    TMP DP  RH WIND       PRES   REMARKS
CLE-HOPKINS    MOCLDY    71  62  73 S9        29.98F
CLE-LAKEFRONT  CLEAR     75  63  66 S12       29.95F
CUY CO. ARPT   NOT AVBL
LORAIN-ELYRIA  CLEAR     67  61  81 SW7       29.97F
ASHTABULA      MOCLDY    69  68  96 SW5       29.99S
AKRON-CANTON   CLEAR     70  65  84 S6        30.00F
WOOSTER        CLEAR     66  62  87 SW6       30.00F
MANSFIELD      CLEAR     67  61  81 S9        30.00F
YOUNGSTOWN     MOCLDY    69  67  93 SW7       30.00F
$$

OHZ042-051>053-060>062-070>072-077>081-070700-
  SOUTHWEST OHIO

CITY           SKY/WX    TMP DP  RH WIND       PRES   REMARKS
CINC-COVINGTON PTCLDY    72  69  90 S7        30.00F
CINC-LUNKEN    PTCLDY    71  68  90 S7        30.00S
HAMILTON       PTCLDY    76  70  82 VRB3      29.99F
DAYTON         PTCLDY    75  68  78 SW9       29.99F HAZE
WRIGHT-PAT AFB PTCLDY    72  68  86 S7        29.99S
DAYTON GENERAL PTCLDY    70  67  90 S6        29.99F
WILMINGTON     CLEAR     71  66  84 S8        30.00F HAZE
$$

OHZ036-037-039>041-045>050-054>059-063>069-073>076-082>088-070700-
  CENTRAL AND SOUTHEAST OHIO

CITY           SKY/WX    TMP DP  RH WIND       PRES   REMARKS
COLUMBUS       MOCLDY    71  63  75 CALM      29.99F
OSU AIRPORT    PTCLDY    72  64  76 S7        29.99F
BOLTON FIELD   NOT AVBL
RICKENBACK AFB NOT AVBL
NEWARK         CLEAR     63  61  93 CALM      30.00F FOG
MARION         PTCLDY    68  62  81 S8        29.99F
LANCASTER      CLEAR     65  61  87 SE3       30.01F
ZANESVILLE     NOT AVBL
NEW PHILLY     CLEAR     66  66 100 SE5       30.02F FOG
$$


USA.gov is the U.S. government's official web portal to all federal, state and local government web resources and services.